SL-12 R/B(2), 18578

Orbit data source: Space-Track

SL-12 R/B(2), 18578 is space debris in GEO originally from a launch on Thu, 26 Nov 1987 UTC launched from the Tyuratam Missile And Space Complex (TTMTR). Debris objects in space refer to the collection of defunct objects orbiting the Earth. Examples of debris include non-operational satellites, rocket bodies, and fragments generated from explosions, collisions, or faulty payload assembly.

Loading next visibility...
Identifier
18578, 1987-096D
Orbit
GEO
Country
Flag of CISCIS
Related business
Manufacturer
NPO Energiya
Mission
Spacecraft
Bus & Motor
BLOK DM, Unknown motor
Mass
2,440 kg wet, 2,440 kg dry
Launch date (UTC)
1987-11-26 (38 years ago)
Launch vehicle
Unknown
Launch site
Tyuratam Missile And Space Complex (TTMTR)
Object type
Payload
Rocket body
Debris
Shape & HBR
Cyl, 3.1 m
Radar Cross Section
23.597 m², Large (>1 m²)

Expand to show TLE details & history
Last TLE update: 1 day ago

TLE from 1 day ago
0 SL-12 R/B(2)
1 18578U 87096D   25348.66884914  .00000120  00000-0  00000-0 0  9990
2 18578  11.0753 327.3649 0023663 245.7713 305.1882  1.00562063136179
Epoch: 2025-12-14T16:03Z
TLE epoch observation values (Epoch: 2025-12-14T16:03:08.565Z)
Latitude
-2.05672°
Longitude
-166.47867°
Altitude
35,648.384 km
Speed
3.082 km/s
True Right ascension
10h 31m 32s
True Declination
-2° 03' 17"
Sunlit
Object was in daylight at epoch
Visualization orbit readout
Latitude
Unknown
Longitude
Unknown
Altitude
Unknown
Speed
Unknown
Apparent Right ascension
Unknown
Apparent Declination
Unknown
Sunlit
N/A
Visualization observer readout
Local Sidereal Time
19:03:31
Azimuth
Unknown
Elevation
Unknown
Doppler factor
Unknown
Orbital elements
Apogee altitude
35,806.014 km
Perigee altitude
35,606.845 km
Semi-major axis
42,084.567 km
Eccentricity
0.00237
Inclination
11.0753°
RAAN
327.3649°
Arg. of periapsis
245.7713°
True anomaly
304.96621°
Mean anomaly
305.1882°
Eccentric anomaly
305.07725°
Mean motion
0.2514 °/min
Orbital period
1,432 mins
BSTAR
0
Loading maneuver chart data...
Computing Atmospheric mass density...
Loading historical data...
Loading historical data...
Loading historical data...
Loading historical data...
Loading historical data...
Loading historical data...
Loading historical data...

Documentation

Showing up to 5 results
|